Weather History for Monterey, CA

Change the Weather History Date:

Tuesday, January 22, 2013

  Actual Average Record
Temperature  
Mean Temperature 54 °F 51 °F  
Max Temperature 64 °F 59 °F 71 °F (2011)
Min Temperature 44 °F 43 °F 34 °F (2002)
Degree Days  
Heating Degree Days 11    
Month to date heating degree days 351  
Since 1 July heating degree days 1709  
Cooling Degree Days 0    
Month to date cooling degree days 0  
Year to date cooling degree days 0  
Growing Degree Days 4 (Base 50)    
Moisture  
Dew Point 31 °F    
Average Humidity 43    
Maximum Humidity 54    
Minimum Humidity 32    
Precipitation  
Precipitation 0.00 in - 0.62 in (2009)
Month to date precipitation 0.64  
Year to date precipitation 0.64  
Since 1 July precipitation 8.88  
Sea Level Pressure  
Sea Level Pressure 30.08 in    
Wind  
Wind Speed 4 mph (East)    
Max Wind Speed 13 mph    
Max Gust Speed 17 mph    
Visibility 10 miles    
Events      
T = Trace of Precipitation, MM = Missing Value Source: NWS Daily Summary

Daily Weather History Graph

Daily Weather History Graph

Search for Another Location

Airport:

Trip Planner

Search our weather history database for the weather conditions in past years. The results will help you decide how hot, cold, wet, or windy it might be!

Date:

Astronomy

Jan. 22, 2013 Rise Set
Actual Time 7:15 AM PST 5:22 PM PST
Civil Twilight 6:47 AM PST 5:50 PM PST
Nautical Twilight 6:16 AM PST 6:22 PM PST
Astronomical Twilight 5:45 AM PST 6:52 PM PST
Moon 1:51 PM PST (1/22) 3:40 AM PST (1/22)
Length of Visible Light 11h 02m
Length of Day
10h 07m
Waxing Gibbous, 83% of the Moon is Illuminated
Jan 22
Waxing Gibbous
Jan 26
Full
Feb 3
Last Quarter
Feb 9
New
Feb 17
First Quarter

Hourly Weather History & Observations

Time (PST) Temp. Windchill Dew Point Humidity Pressure Visibility Wind Dir Wind Speed Gust Speed Precip Events Conditions
12:54 AM 50.0 °F - 25.0 °F 38% 30.10 in 10.0 mi East 5.8 mph - N/A   Clear
1:54 AM 48.9 °F - 24.1 °F 38% 30.10 in 10.0 mi ESE 3.5 mph - N/A   Clear
2:54 AM 46.9 °F - 24.1 °F 41% 30.09 in 10.0 mi East 3.5 mph - N/A   Clear
3:54 AM 46.0 °F 44.8 °F 25.0 °F 44% 30.07 in 10.0 mi ESE 3.5 mph - N/A   Clear
4:54 AM 48.9 °F - 21.0 °F 33% 30.09 in 10.0 mi Calm Calm - N/A   Clear
5:54 AM 46.0 °F 42.5 °F 23.0 °F 40% 30.09 in 10.0 mi East 6.9 mph - N/A   Clear
6:54 AM 50.0 °F - 21.9 °F 33% 30.10 in 10.0 mi East 8.1 mph - N/A   Clear
7:54 AM 46.9 °F - 24.1 °F 41% 30.09 in 10.0 mi Calm Calm - N/A   Clear
8:54 AM 55.9 °F - 27.0 °F 33% 30.09 in 10.0 mi East 4.6 mph - N/A   Clear
9:54 AM 57.0 °F - 35.1 °F 44% 30.11 in 10.0 mi West 5.8 mph - N/A   Clear
10:54 AM 57.9 °F - 37.0 °F 46% 30.13 in 10.0 mi NW 4.6 mph - N/A   Clear
11:54 AM 62.1 °F - 35.1 °F 37% 30.11 in 10.0 mi Variable 3.5 mph - N/A   Clear
12:54 PM 60.1 °F - 39.9 °F 47% 30.09 in 10.0 mi West 4.6 mph - N/A   Clear
1:54 PM 61.0 °F - 39.0 °F 44% 30.08 in 10.0 mi NW 4.6 mph - N/A   Clear
2:54 PM 62.1 °F - 37.0 °F 39% 30.06 in 10.0 mi Calm Calm - N/A   Clear
3:54 PM 63.0 °F - 32.0 °F 31% 30.06 in 10.0 mi WSW 4.6 mph - N/A   Clear
4:54 PM 60.1 °F - 30.9 °F 33% 30.06 in 10.0 mi Calm Calm - N/A   Clear
5:54 PM 55.9 °F - 37.0 °F 49% 30.04 in 10.0 mi Variable 3.5 mph - N/A   Clear
6:54 PM 54.0 °F - 37.9 °F 55% 30.06 in 10.0 mi Calm Calm - N/A   Clear
7:54 PM 53.1 °F - 35.1 °F 50% 30.06 in 10.0 mi East 3.5 mph - N/A   Clear
8:54 PM 52.0 °F - 35.1 °F 53% 30.06 in 10.0 mi East 3.5 mph - N/A   Clear
9:54 PM 51.1 °F - 36.0 °F 56% 30.08 in 10.0 mi East 4.6 mph - N/A   Clear
10:54 PM 52.0 °F - 35.1 °F 53% 30.09 in 10.0 mi East 6.9 mph - N/A   Clear
11:54 PM 52.0 °F - 34.0 °F 50% 30.08 in 10.0 mi East 5.8 mph - N/A   Clear